User: anonymous   Login
Location: Unspecified
(0.0000°N, 0.0000°E)
Time: 21:59:41
(UTC+00:00)
Language:

TYVAK-61C - Orbit

View from above orbital plane
View from above orbital plane
View from above satellite
View from above satellite

Ground track
Ground track

The orbit data is extracted from the following two-line orbital elements,

1 43144U 18004AK  18343.83246545  .00001798  00000-0  77109-4 0  9998
2 43144  97.5144  47.2398 0007565 208.6852 151.3970 15.24039898 50476
Epoch (UTC): 09 December 2018 19:58:45
Eccentricity: 0.0007565
inclination: 97.5144°
perigee height: 488 km
apogee height: 499 km
right ascension of ascending node: 47.2398°
argument of perigee: 208.6852°
revolutions per day: 15.24039898
mean anomaly at epoch: 151.3970°
orbit number at epoch: 5047

The dashed part of the orbit path shows where the satellite is in the earth's shadow,  

DLR